TFFRTKPK

Guest
Details From TFFR - Pointe a Pitre Le Raizet
To TKPK - St. Kitts/Bradshaw Intl
Flight Number -
Tags generated
Created
Modified
Stats Distance 93 nm / 172 km
Max Altitude 0 ft / 0 m
Waypoints 2
Social Downloads 0
Likes 0
Share VATSIM

Download

Looking for another format? Having issues loading an existing format? Contact us
Advertisement - Login to hide

Notes

Basic altitude profile: - Ascent Rate: 2500ft/min - Ascent Speed: 250kts - Cruise Altitude: 35000ft - Cruise Speed: 420kts - Descent Rate: 1500ft/min - Descent Speed: 250kts Options: - Use NATs: yes - Use PACOTS: yes - Use low airways: no - Use high airways: no

Route

TFFR TKPK

ID Type Via Altitude Latitude Longitude Leg Dist Tot Dist Heading (true) Name
O TFFR APT - 0 ft / 0 m 16.26531˚ -61.53181˚ - 0 nm - Pointe a Pitre Le Raizet
O TKPK APT - 0 ft / 0 m 17.31119˚ -62.71867˚ 92 nm 92 nm 313° / 312° St. Kitts/Bradshaw Intl

Altitude Profile

Advertisement - Login to hide

TFFR

Details ICAO TFFR (PTP)
Name Pointe a Pitre Le Raizet
Region France (Guadeloupe, Martinique, Saint Barthélemy, Saint Martin)
Timezone America/Guadeloupe (UTC-4.0)
Stats Elevation 35 ft / 11 m (AMSL)
Location 16.265306° -61.531808°
Runways 1
Magnetic Variation 14.868° W

METAR

TFFR 221030Z AUTO VRB03KT 9999 ///TCU 23/22 Q1017 TEMPO 3000 SHRA SCT018CB

Decode

TAF

TAF TFFR 220500Z 2206/2306 VRB03KT 9999 SCT020 SCT035 PROB40 TEMPO 2206/2219 3000 SHRA SCT018CB

Decode

Departure Runways

ID Width Length Bearing (true) Bearing (mag) Surface Threshold Offset Overrun Length
11 148 ft / 45 m 11,513 ft / 3,509 m 100.94° 115.81° Asphalt 0 ft / 0 m 0 ft / 0 m
29 148 ft / 45 m 11,513 ft / 3,509 m 280.95° 295.82° Asphalt 0 ft / 0 m 0 ft / 0 m

TKPK

Details ICAO TKPK (SKB)
Name St. Kitts/Bradshaw Intl
Region Saint Kitts and Nevis
Timezone America/St_Kitts (UTC-4.0)
Stats Elevation 170 ft / 52 m (AMSL)
Location 17.311194° -62.718666°
Runways 1
Magnetic Variation 14.463° W

METAR

TKPK 221000Z 00000KT 9999 -SHRA BKN016 24/23 Q1017

Decode

TAF

TAF TAF AMD TKPK 221006Z 2210/2306 07012KT P6SM VCTS SCT020CB BKN040 TEMPO 2210/2211 SHRA BKN016 AMD NOT SKED TIL 221100

Decode

Destination Runways

ID Width Length Bearing (true) Bearing (mag) Surface Threshold Offset Overrun Length
07 148 ft / 45 m 7,620 ft / 2,323 m 56.95° 71.41° Asphalt 200 ft / 61 m 0 ft / 0 m
25 148 ft / 45 m 7,620 ft / 2,323 m 236.95° 251.41° Asphalt 0 ft / 0 m 0 ft / 0 m

Popular Alternatives